Station History

Weather Underground - logo

Station Historical Data
Daily Summary for September 7, 2017 Units:  English    Metric   Both
« Previous Day
Next Day »
Daily Weekly Monthly Yearly Custom
  High: Low: Average:
Temperature: 92.7 °F 65.8 °F 79.6 °F
Dew Point: 68.5 °F 56.9 °F 62.3 °F
Humidity: 78 % 38 % 57 %
Wind Speed: 5.8 mph 0.0 mph 1.3 mph
Wind Gust: 5.8 mph - -
Wind:- - SW
Pressure: 29.91 in 29.74 in -
Precipitation: 0.00 in    
Historical Graphs
 
 
Tabular Data for September 7, 2017
Time Temperature Dew Point Pressure Wind Wind Speed Wind Gust Humidity Rainfall Rate (Hourly)
00:00 78.0 °F 58.9 °F 29.85 in SE 2.3 mph 2.3 mph 52 % 0.00 in
00:05 78.1 °F 59.0 °F 29.85 in ESE 5.0 mph 5.0 mph 52 % 0.00 in
00:10 78.3 °F 58.7 °F 29.85 in SE 3.5 mph 3.5 mph 51 % 0.00 in
00:15 78.4 °F 58.2 °F 29.85 in ESE 3.5 mph 3.5 mph 50 % 0.00 in
00:20 78.5 °F 58.3 °F 29.85 in East 1.2 mph 1.2 mph 50 % 0.00 in
00:25 78.6 °F 58.4 °F 29.85 in SE 1.2 mph 1.2 mph 50 % 0.00 in
00:30 78.5 °F 58.3 °F 29.85 in SE 1.2 mph 1.2 mph 50 % 0.00 in
00:35 78.5 °F 58.3 °F 29.85 in ESE 1.2 mph 1.2 mph 50 % 0.00 in
00:40 78.4 °F 58.2 °F 29.84 in Calm     50 % 0.00 in
00:45 78.3 °F 58.1 °F 29.85 in Calm   0.1 mph 50 % 0.00 in
00:50 78.1 °F 58.5 °F 29.85 in ESE 1.2 mph   51 % 0.00 in
00:55 77.8 °F 58.2 °F 29.85 in Calm     51 % 0.00 in
01:00 77.5 °F 58.5 °F 29.85 in Calm     52 % 0.00 in
01:05 77.2 °F 58.7 °F 29.85 in Calm     53 % 0.00 in
01:10 76.8 °F 58.4 °F 29.85 in Calm     53 % 0.00 in
01:15 76.5 °F 58.6 °F 29.85 in SSE 1.2 mph 1.2 mph 54 % 0.00 in
01:20 76.1 °F 58.8 °F 29.85 in Calm     55 % 0.00 in
01:25 75.7 °F 58.9 °F 29.85 in Calm     56 % 0.00 in
01:30 75.3 °F 59.0 °F 29.85 in Calm     57 % 0.00 in
01:35 74.9 °F 58.6 °F 29.85 in Calm     57 % 0.00 in
01:40 74.6 °F 58.4 °F 29.85 in Calm     57 % 0.00 in
01:45 74.5 °F 58.3 °F 29.85 in Calm     57 % 0.00 in
01:50 74.3 °F 58.6 °F 29.85 in SE 1.2 mph 1.2 mph 58 % 0.00 in
01:55 74.0 °F 58.8 °F 29.85 in Calm     59 % 0.00 in
02:00 73.6 °F 58.9 °F 29.84 in Calm     60 % 0.00 in
02:08 73.1 °F 58.8 °F 29.84 in Calm     61 % 0.00 in
02:13 72.9 °F 58.7 °F 29.85 in SSE 1.2 mph   61 % 0.00 in
02:18 72.8 °F 58.6 °F 29.85 in Calm     61 % 0.00 in
02:23 72.6 °F 58.8 °F 29.85 in South 1.2 mph 1.2 mph 62 % 0.00 in
02:28 72.6 °F 57.9 °F 29.85 in South 1.2 mph 1.2 mph 60 % 0.00 in
02:33 72.7 °F 57.5 °F 29.85 in SSE 1.2 mph 1.2 mph 59 % 0.00 in
02:38 72.8 °F 57.2 °F 29.85 in SSE 2.3 mph 2.3 mph 58 % 0.00 in
02:43 73.0 °F 56.9 °F 29.85 in ESE 2.3 mph 2.3 mph 57 % 0.00 in
02:48 73.3 °F 57.1 °F 29.85 in South 1.2 mph 1.2 mph 57 % 0.00 in
02:53 73.3 °F 57.1 °F 29.85 in Calm     57 % 0.00 in
02:54 73.3 °F 57.1 °F 29.85 in Calm     57 % 0.00 in
02:59 73.0 °F 57.3 °F 29.85 in Calm     58 % 0.00 in
03:04 72.8 °F 57.2 °F 29.85 in ESE 1.2 mph   58 % 0.00 in
03:09 72.6 °F 57.0 °F 29.85 in Calm     58 % 0.00 in
03:14 72.3 °F 57.2 °F 29.85 in ESE 1.2 mph   59 % 0.00 in
03:19 72.0 °F 57.4 °F 29.85 in Calm     60 % 0.00 in
03:24 71.7 °F 57.5 °F 29.85 in Calm     61 % 0.00 in
03:29 71.3 °F 57.2 °F 29.85 in Calm     61 % 0.00 in
03:34 71.1 °F 57.4 °F 29.85 in Calm     62 % 0.00 in
03:36 70.9 °F 57.2 °F 29.85 in SE 1.2 mph   62 % 0.00 in
03:41 70.7 °F 57.0 °F 29.85 in Calm     62 % 0.00 in
03:46 70.5 °F 57.3 °F 29.85 in Calm     63 % 0.00 in
03:49 70.4 °F 57.2 °F 29.85 in Calm     63 % 0.00 in
03:54 70.2 °F 57.0 °F 29.86 in SE 1.2 mph   63 % 0.00 in
03:59 70.0 °F 57.3 °F 29.86 in Calm     64 % 0.00 in
04:04 69.9 °F 57.6 °F 29.86 in Calm     65 % 0.00 in
04:09 69.9 °F 57.6 °F 29.86 in Calm     65 % 0.00 in
04:14 69.9 °F 57.6 °F 29.86 in SE 1.2 mph   65 % 0.00 in
04:19 69.7 °F 57.8 °F 29.86 in Calm     66 % 0.00 in
04:24 69.4 °F 57.5 °F 29.86 in Calm     66 % 0.00 in
04:29 69.2 °F 57.4 °F 29.86 in Calm     66 % 0.00 in
04:34 69.1 °F 57.7 °F 29.86 in Calm     67 % 0.00 in
04:39 68.9 °F 57.5 °F 29.86 in SE 1.2 mph 1.2 mph 67 % 0.00 in
04:44 68.7 °F 57.7 °F 29.86 in Calm     68 % 0.00 in
04:49 68.5 °F 57.9 °F 29.86 in Calm     69 % 0.00 in
04:54 68.4 °F 57.8 °F 29.86 in Calm     69 % 0.00 in
04:59 68.1 °F 57.9 °F 29.86 in Calm     70 % 0.00 in
05:04 67.9 °F 57.8 °F 29.86 in Calm     70 % 0.00 in
05:09 67.9 °F 57.4 °F 29.86 in SE 1.2 mph   69 % 0.00 in
05:14 67.8 °F 57.7 °F 29.86 in Calm     70 % 0.00 in
05:19 67.7 °F 57.2 °F 29.86 in Calm     69 % 0.00 in
05:24 67.6 °F 57.1 °F 29.86 in SE 1.0 mph   69 % 0.00 in
05:29 67.6 °F 57.5 °F 29.86 in SE 1.2 mph   70 % 0.00 in
05:34 67.5 °F 57.4 °F 29.86 in SE 1.2 mph 1.2 mph 70 % 0.00 in
05:39 67.3 °F 57.2 °F 29.87 in ESE 1.2 mph 1.2 mph 70 % 0.00 in
05:44 67.3 °F 57.2 °F 29.86 in Calm     70 % 0.00 in
05:49 67.1 °F 57.4 °F 29.87 in SE 1.2 mph 1.2 mph 71 % 0.00 in
05:54 66.9 °F 57.2 °F 29.87 in SE 1.2 mph   71 % 0.00 in
05:59 66.9 °F 57.2 °F 29.87 in Calm     71 % 0.00 in
06:04 66.8 °F 57.1 °F 29.87 in SE 1.2 mph   71 % 0.00 in
06:09 66.7 °F 57.4 °F 29.87 in Calm     72 % 0.00 in
06:14 66.4 °F 57.1 °F 29.87 in Calm     72 % 0.00 in
06:19 66.3 °F 57.0 °F 29.87 in Calm     72 % 0.00 in
06:24 66.2 °F 56.9 °F 29.87 in Calm     72 % 0.00 in
06:29 66.2 °F 57.3 °F 29.87 in Calm     73 % 0.00 in
06:34 66.1 °F 57.6 °F 29.88 in Calm     74 % 0.00 in
06:39 66.0 °F 57.5 °F 29.88 in SE 1.2 mph 1.2 mph 74 % 0.00 in
06:44 65.9 °F 57.4 °F 29.88 in Calm     74 % 0.00 in
06:49 65.8 °F 57.7 °F 29.89 in Calm     75 % 0.00 in
06:54 65.8 °F 58.0 °F 29.89 in Calm     76 % 0.00 in
06:59 65.8 °F 58.4 °F 29.89 in Calm     77 % 0.00 in
07:04 65.8 °F 58.7 °F 29.89 in Calm     78 % 0.00 in
07:09 65.9 °F 58.5 °F 29.89 in Calm     77 % 0.00 in
07:14 66.0 °F 58.6 °F 29.90 in Calm     77 % 0.00 in
07:19 66.0 °F 58.6 °F 29.90 in Calm     77 % 0.00 in
07:24 66.2 °F 59.1 °F 29.90 in Calm     78 % 0.00 in
07:29 66.4 °F 59.3 °F 29.90 in Calm     78 % 0.00 in
07:34 66.7 °F 59.6 °F 29.90 in Calm     78 % 0.00 in
07:39 67.0 °F 59.9 °F 29.90 in Calm     78 % 0.00 in
07:44 67.3 °F 60.2 °F 29.91 in Calm   0.1 mph 78 % 0.00 in
07:49 67.5 °F 60.4 °F 29.90 in Calm     78 % 0.00 in
07:54 67.8 °F 60.7 °F 29.91 in Calm     78 % 0.00 in
08:00 68.7 °F 61.2 °F 29.91 in Calm     77 % 0.00 in
08:05 69.7 °F 61.4 °F 29.91 in Calm     75 % 0.00 in
08:10 70.8 °F 61.7 °F 29.91 in Calm     73 % 0.00 in
08:15 71.5 °F 61.6 °F 29.91 in Calm     71 % 0.00 in
08:20 72.3 °F 62.0 °F 29.91 in SSE 1.2 mph 1.2 mph 70 % 0.00 in
08:25 72.8 °F 62.4 °F 29.91 in Calm     70 % 0.00 in
08:30 73.0 °F 62.2 °F 29.90 in East 2.3 mph 2.3 mph 69 % 0.00 in
08:35 73.3 °F 62.5 °F 29.90 in SE 1.2 mph   69 % 0.00 in
08:40 74.2 °F 62.5 °F 29.90 in SSE 1.2 mph 1.2 mph 67 % 0.00 in
08:45 74.6 °F 62.9 °F 29.90 in Calm     67 % 0.00 in
08:50 75.2 °F 63.1 °F 29.91 in SSE 1.2 mph   66 % 0.00 in
08:55 75.9 °F 63.7 °F 29.91 in Calm     66 % 0.00 in
09:00 76.3 °F 63.2 °F 29.91 in Calm     64 % 0.00 in
09:05 76.4 °F 63.3 °F 29.91 in Calm     64 % 0.00 in
09:10 76.6 °F 63.5 °F 29.91 in South 2.3 mph 2.3 mph 64 % 0.00 in
09:15 76.8 °F 63.7 °F 29.91 in South 3.5 mph 3.5 mph 64 % 0.00 in
09:20 77.2 °F 63.6 °F 29.91 in SSE 2.3 mph 2.3 mph 63 % 0.00 in
09:25 77.8 °F 64.6 °F 29.91 in SE 1.2 mph 1.2 mph 64 % 0.00 in
09:30 78.2 °F 64.6 °F 29.91 in ESE 2.0 mph 2.0 mph 63 % 0.00 in
09:35 78.4 °F 64.3 °F 29.91 in NE 2.3 mph 2.3 mph 62 % 0.00 in
09:40 78.5 °F 64.9 °F 29.91 in SSE 1.2 mph 1.2 mph 63 % 0.00 in
09:45 78.6 °F 64.5 °F 29.91 in SE 2.3 mph 2.3 mph 62 % 0.00 in
09:50 78.9 °F 64.3 °F 29.91 in East 3.5 mph 3.5 mph 61 % 0.00 in
09:55 79.4 °F 64.8 °F 29.91 in SSE 3.5 mph 3.5 mph 61 % 0.00 in
10:00 79.8 °F 65.2 °F 29.91 in South 2.0 mph 2.0 mph 61 % 0.00 in
10:05 80.1 °F 65.0 °F 29.90 in SE 2.3 mph 2.3 mph 60 % 0.00 in
10:10 80.2 °F 65.1 °F 29.90 in SE 2.3 mph 2.3 mph 60 % 0.00 in
10:15 80.6 °F 64.9 °F 29.90 in NNW 2.3 mph 2.3 mph 59 % 0.00 in
10:20 81.4 °F 65.7 °F 29.90 in NNW 1.2 mph   59 % 0.00 in
10:25 81.9 °F 66.2 °F 29.91 in SSE 3.0 mph 3.0 mph 59 % 0.00 in
10:30 81.7 °F 66.9 °F 29.91 in NE 1.2 mph   61 % 0.00 in
10:35 82.3 °F 66.5 °F 29.91 in Calm   0.4 mph 59 % 0.00 in
10:40 82.8 °F 66.0 °F 29.90 in ESE 4.6 mph 4.6 mph 57 % 0.00 in
10:45 82.6 °F 66.3 °F 29.90 in East 2.3 mph 2.3 mph 58 % 0.00 in
10:50 83.3 °F 67.0 °F 29.90 in SSW 2.3 mph   58 % 0.00 in
10:56 83.8 °F 66.9 °F 29.90 in SE 4.0 mph 4.0 mph 57 % 0.00 in
11:01 83.9 °F 67.0 °F 29.90 in SSW 2.3 mph 2.3 mph 57 % 0.00 in
11:06 83.9 °F 66.0 °F 29.90 in West 3.5 mph 3.5 mph 55 % 0.00 in
11:11 84.1 °F 66.7 °F 29.90 in NW 2.3 mph 2.3 mph 56 % 0.00 in
11:16 84.0 °F 66.6 °F 29.90 in NE 2.0 mph 2.0 mph 56 % 0.00 in
11:21 84.2 °F 66.8 °F 29.90 in WNW 2.3 mph 2.3 mph 56 % 0.00 in
11:26 84.6 °F 67.2 °F 29.90 in WSW 1.2 mph 1.2 mph 56 % 0.00 in
11:31 84.9 °F 68.5 °F 29.90 in SE 1.2 mph 1.2 mph 58 % 0.00 in
11:36 85.5 °F 67.5 °F 29.90 in WSW 1.2 mph 1.2 mph 55 % 0.00 in
11:41 85.6 °F 67.0 °F 29.90 in NNW 1.2 mph 1.2 mph 54 % 0.00 in
11:46 86.1 °F 67.5 °F 29.90 in SE 3.5 mph 3.5 mph 54 % 0.00 in
11:51 86.6 °F 66.9 °F 29.89 in SE 2.3 mph 2.3 mph 52 % 0.00 in
11:56 87.0 °F 66.1 °F 29.89 in NNW 1.2 mph 1.2 mph 50 % 0.00 in
12:01 86.8 °F 65.9 °F 29.89 in WSW 1.0 mph 1.0 mph 50 % 0.00 in
12:06 86.6 °F 66.3 °F 29.89 in WNW 3.5 mph 3.5 mph 51 % 0.00 in
12:11 86.5 °F 66.2 °F 29.89 in NNE 2.3 mph 2.3 mph 51 % 0.00 in
12:16 86.6 °F 65.7 °F 29.88 in SW 2.3 mph 2.3 mph 50 % 0.00 in
12:21 87.0 °F 66.7 °F 29.88 in NNE 1.2 mph 1.2 mph 51 % 0.00 in
12:26 87.6 °F 66.7 °F 29.88 in NW 1.2 mph 1.2 mph 50 % 0.00 in
12:31 87.6 °F 66.1 °F 29.88 in NW 3.5 mph 3.5 mph 49 % 0.00 in
12:36 87.6 °F 66.1 °F 29.88 in SW 1.2 mph 1.2 mph 49 % 0.00 in
12:41 87.9 °F 66.9 °F 29.88 in South 2.3 mph 2.3 mph 50 % 0.00 in
12:46 87.7 °F 66.2 °F 29.88 in NW 2.3 mph 2.3 mph 49 % 0.00 in
12:51 87.3 °F 65.8 °F 29.87 in NNW 3.5 mph 3.5 mph 49 % 0.00 in
12:56 87.7 °F 65.6 °F 29.87 in SSE 2.3 mph 2.3 mph 48 % 0.00 in
13:01 88.6 °F 65.8 °F 29.87 in NW 4.0 mph 4.0 mph 47 % 0.00 in
13:06 88.3 °F 66.7 °F 29.87 in SSE 2.3 mph 2.3 mph 49 % 0.00 in
13:11 88.1 °F 65.3 °F 29.87 in SW 3.5 mph 3.5 mph 47 % 0.00 in
13:16 88.1 °F 65.9 °F 29.86 in West 2.3 mph 2.3 mph 48 % 0.00 in
13:21 88.7 °F 64.6 °F 29.86 in NNW 2.3 mph 2.3 mph 45 % 0.00 in
13:26 89.0 °F 64.9 °F 29.86 in South 2.3 mph 2.3 mph 45 % 0.00 in
13:31 89.8 °F 66.9 °F 29.86 in NW 1.2 mph 1.2 mph 47 % 0.00 in
13:32 89.9 °F 67.0 °F 29.86 in WNW 1.2 mph 1.2 mph 47 % 0.00 in
13:37 89.5 °F 64.7 °F 29.85 in NNW 3.5 mph 3.5 mph 44 % 0.00 in
13:42 89.0 °F 64.9 °F 29.85 in WNW 2.3 mph 2.3 mph 45 % 0.00 in
13:47 89.1 °F 65.0 °F 29.85 in NW 1.2 mph 1.2 mph 45 % 0.00 in
13:52 89.0 °F 64.9 °F 29.85 in Calm     45 % 0.00 in
13:57 89.0 °F 64.3 °F 29.85 in NNE 2.3 mph 2.3 mph 44 % 0.00 in
14:02 89.8 °F 65.6 °F 29.84 in South 1.2 mph   45 % 0.00 in
14:07 90.9 °F 65.3 °F 29.84 in SSE 1.2 mph 1.2 mph 43 % 0.00 in
14:12 91.4 °F 63.7 °F 29.84 in West 1.0 mph 1.0 mph 40 % 0.00 in
14:17 91.2 °F 65.6 °F 29.83 in SE 2.3 mph 2.3 mph 43 % 0.00 in
14:22 91.2 °F 64.9 °F 29.83 in West 2.3 mph 2.3 mph 42 % 0.00 in
14:27 91.1 °F 66.2 °F 29.83 in Calm     44 % 0.00 in
14:32 91.8 °F 64.7 °F 29.83 in SSE 3.5 mph 3.5 mph 41 % 0.00 in
14:37 91.8 °F 64.7 °F 29.83 in NW 3.5 mph 3.5 mph 41 % 0.00 in
14:42 91.3 °F 64.3 °F 29.82 in WNW 1.2 mph 1.2 mph 41 % 0.00 in
14:47 91.5 °F 63.8 °F 29.82 in NW 3.0 mph 3.0 mph 40 % 0.00 in
14:52 91.1 °F 64.8 °F 29.82 in SSE 1.2 mph   42 % 0.00 in
14:57 91.6 °F 65.3 °F 29.81 in SSE 3.5 mph 3.5 mph 42 % 0.00 in
15:02 92.3 °F 63.0 °F 29.81 in NW 2.3 mph 2.3 mph 38 % 0.00 in
15:07 92.4 °F 63.9 °F 29.81 in SSE 1.2 mph 1.2 mph 39 % 0.00 in
15:12 92.5 °F 63.2 °F 29.81 in WNW 2.3 mph 2.3 mph 38 % 0.00 in
15:15 92.5 °F 63.2 °F 29.81 in WNW 3.5 mph 3.5 mph 38 % 0.00 in
15:20 92.0 °F 64.2 °F 29.80 in WNW 1.2 mph 1.2 mph 40 % 0.00 in
15:25 91.8 °F 64.0 °F 29.80 in North 2.3 mph 2.3 mph 40 % 0.00 in
15:30 92.4 °F 63.9 °F 29.80 in NW 1.2 mph 1.2 mph 39 % 0.00 in
15:35 92.7 °F 64.8 °F 29.80 in NW 2.3 mph 2.3 mph 40 % 0.00 in
15:40 92.4 °F 64.6 °F 29.79 in WNW 2.0 mph 2.0 mph 40 % 0.00 in
15:45 92.3 °F 65.2 °F 29.79 in WNW 3.5 mph 3.5 mph 41 % 0.00 in
15:50 92.2 °F 65.8 °F 29.79 in North 2.0 mph 2.0 mph 42 % 0.00 in
15:55 92.2 °F 65.8 °F 29.78 in SSE 2.0 mph 2.0 mph 42 % 0.00 in
16:00 92.5 °F 66.7 °F 29.78 in NNW 2.3 mph 2.3 mph 43 % 0.00 in
16:05 92.6 °F 66.2 °F 29.78 in NE 2.0 mph 2.0 mph 42 % 0.00 in
16:10 92.1 °F 65.0 °F 29.78 in WNW 3.5 mph 3.5 mph 41 % 0.00 in
16:15 92.3 °F 66.6 °F 29.77 in NNW 1.2 mph 1.2 mph 43 % 0.00 in
16:20 92.0 °F 65.6 °F 29.77 in North 3.5 mph 3.5 mph 42 % 0.00 in
16:25 91.9 °F 64.8 °F 29.77 in West 2.0 mph 2.0 mph 41 % 0.00 in
16:30 91.9 °F 64.8 °F 29.77 in WNW 1.2 mph 1.2 mph 41 % 0.00 in
16:35 92.0 °F 64.9 °F 29.77 in WSW 2.0 mph 2.0 mph 41 % 0.00 in
16:40 91.7 °F 64.0 °F 29.77 in NW 5.8 mph 5.8 mph 40 % 0.00 in
16:45 91.5 °F 64.5 °F 29.76 in WNW 3.5 mph 3.5 mph 41 % 0.00 in
16:51 91.2 °F 63.5 °F 29.76 in NW 3.5 mph 3.5 mph 40 % 0.00 in
16:56 91.0 °F 64.0 °F 29.76 in NW 3.5 mph 3.5 mph 41 % 0.00 in
17:01 91.0 °F 64.0 °F 29.76 in NW 3.5 mph 3.5 mph 41 % 0.00 in
17:06 90.8 °F 64.5 °F 29.76 in NNW 4.0 mph 4.0 mph 42 % 0.00 in
17:11 90.7 °F 63.8 °F 29.76 in NNW 2.3 mph 2.3 mph 41 % 0.00 in
17:16 90.7 °F 63.8 °F 29.76 in NW 3.5 mph 3.5 mph 41 % 0.00 in
17:21 90.4 °F 63.5 °F 29.76 in NW 3.5 mph 3.5 mph 41 % 0.00 in
17:26 90.4 °F 63.5 °F 29.76 in NW 3.5 mph 3.5 mph 41 % 0.00 in
17:31 90.4 °F 64.2 °F 29.75 in NW 1.2 mph 1.2 mph 42 % 0.00 in
17:36 90.2 °F 63.3 °F 29.75 in NW 3.5 mph 3.5 mph 41 % 0.00 in
17:41 90.0 °F 63.1 °F 29.75 in NW 3.5 mph 3.5 mph 41 % 0.00 in
17:46 89.8 °F 62.3 °F 29.75 in NNW 2.3 mph 2.3 mph 40 % 0.00 in
17:51 89.8 °F 63.0 °F 29.75 in NW 2.3 mph 2.3 mph 41 % 0.00 in
17:55 89.6 °F 63.5 °F 29.75 in NW 3.5 mph 3.5 mph 42 % 0.00 in
18:00 89.3 °F 63.2 °F 29.75 in WNW 2.3 mph 2.3 mph 42 % 0.00 in
18:05 88.9 °F 64.2 °F 29.75 in NW 2.3 mph 2.3 mph 44 % 0.00 in
18:10 88.6 °F 64.5 °F 29.75 in WNW 2.3 mph 2.3 mph 45 % 0.00 in
18:15 88.3 °F 64.9 °F 29.75 in NW 1.2 mph 1.2 mph 46 % 0.00 in
18:20 88.0 °F 64.0 °F 29.75 in WNW 1.2 mph 1.2 mph 45 % 0.00 in
18:25 87.8 °F 63.8 °F 29.74 in NW 2.3 mph 2.3 mph 45 % 0.00 in
18:30 87.5 °F 64.2 °F 29.74 in NW 1.2 mph 1.2 mph 46 % 0.00 in
18:36 87.2 °F 63.9 °F 29.75 in NW 1.2 mph 1.2 mph 46 % 0.00 in
18:41 86.9 °F 64.2 °F 29.75 in NW 1.2 mph   47 % 0.00 in
18:46 86.5 °F 63.9 °F 29.74 in NW 1.2 mph 1.2 mph 47 % 0.00 in
18:51 86.2 °F 64.2 °F 29.74 in Calm     48 % 0.00 in
18:56 85.9 °F 64.5 °F 29.74 in Calm     49 % 0.00 in
19:01 85.5 °F 64.2 °F 29.74 in Calm     49 % 0.00 in
19:06 85.1 °F 64.4 °F 29.74 in Calm     50 % 0.00 in
19:11 84.8 °F 64.7 °F 29.74 in Calm     51 % 0.00 in
19:16 84.5 °F 64.4 °F 29.74 in WNW 1.2 mph 1.2 mph 51 % 0.00 in
19:21 84.2 °F 64.7 °F 29.74 in WNW 1.2 mph 1.2 mph 52 % 0.00 in
19:26 84.0 °F 63.9 °F 29.74 in Calm     51 % 0.00 in
19:31 83.7 °F 64.2 °F 29.74 in Calm     52 % 0.00 in
19:36 83.3 °F 64.4 °F 29.75 in Calm     53 % 0.00 in
19:41 83.0 °F 64.1 °F 29.75 in WNW 1.2 mph   53 % 0.00 in
19:46 82.8 °F 63.9 °F 29.75 in WNW 1.2 mph   53 % 0.00 in
19:51 82.7 °F 63.8 °F 29.75 in Calm     53 % 0.00 in
19:56 82.5 °F 63.6 °F 29.75 in Calm     53 % 0.00 in
20:01 82.2 °F 63.9 °F 29.75 in Calm     54 % 0.00 in
20:06 82.0 °F 63.7 °F 29.75 in Calm     54 % 0.00 in
20:12 81.7 °F 64.0 °F 29.75 in Calm     55 % 0.00 in
20:17 81.3 °F 64.6 °F 29.75 in Calm     57 % 0.00 in
20:19 81.2 °F 64.5 °F 29.75 in Calm     57 % 0.00 in
20:23 80.9 °F 63.7 °F 29.75 in Calm     56 % 0.00 in
20:24 80.7 °F 64.1 °F 29.75 in Calm     57 % 0.00 in
20:29 80.4 °F 64.8 °F 29.75 in Calm     59 % 0.00 in
20:36 79.9 °F 64.8 °F 29.75 in Calm     60 % 0.00 in
20:41 79.5 °F 65.3 °F 29.75 in Calm     62 % 0.00 in
20:46 79.1 °F 65.9 °F 29.76 in Calm     64 % 0.00 in
20:51 78.8 °F 64.7 °F 29.76 in Calm     62 % 0.00 in
20:56 79.2 °F 64.6 °F 29.76 in Calm     61 % 0.00 in
21:01 79.6 °F 64.0 °F 29.76 in Calm     59 % 0.00 in
21:06 79.8 °F 64.2 °F 29.76 in Calm     59 % 0.00 in
21:11 79.9 °F 64.3 °F 29.76 in NNW 1.0 mph 1.0 mph 59 % 0.00 in
21:16 80.0 °F 63.9 °F 29.76 in North 2.3 mph 2.3 mph 58 % 0.00 in
21:22 80.0 °F 63.9 °F 29.76 in North 1.2 mph 1.2 mph 58 % 0.00 in
21:27 79.9 °F 63.8 °F 29.76 in NW 1.2 mph 1.2 mph 58 % 0.00 in
21:32 79.7 °F 63.6 °F 29.76 in Calm     58 % 0.00 in
21:37 79.6 °F 63.5 °F 29.76 in Calm     58 % 0.00 in
21:42 79.1 °F 63.5 °F 29.76 in Calm     59 % 0.00 in
21:47 78.5 °F 63.9 °F 29.76 in WNW 1.2 mph 1.2 mph 61 % 0.00 in
21:52 78.0 °F 63.9 °F 29.76 in WNW 1.2 mph 1.2 mph 62 % 0.00 in
21:57 77.6 °F 63.5 °F 29.77 in Calm     62 % 0.00 in
22:02 77.4 °F 63.4 °F 29.77 in NW 1.2 mph 1.2 mph 62 % 0.00 in
22:07 77.2 °F 63.6 °F 29.77 in Calm     63 % 0.00 in
22:12 77.1 °F 63.5 °F 29.77 in NW 1.2 mph 1.2 mph 63 % 0.00 in
22:17 76.9 °F 63.8 °F 29.77 in NW 2.3 mph 2.3 mph 64 % 0.00 in
22:22 76.7 °F 63.2 °F 29.77 in WNW 2.3 mph 2.3 mph 63 % 0.00 in
22:27 76.8 °F 62.8 °F 29.77 in NW 3.5 mph 3.5 mph 62 % 0.00 in
22:32 76.9 °F 62.9 °F 29.77 in WNW 1.2 mph 1.2 mph 62 % 0.00 in
22:37 76.8 °F 62.8 °F 29.77 in NW 2.0 mph 2.0 mph 62 % 0.00 in
22:42 76.8 °F 62.3 °F 29.77 in NW 3.5 mph 3.5 mph 61 % 0.00 in
22:47 76.7 °F 62.7 °F 29.77 in WNW 3.0 mph 3.0 mph 62 % 0.00 in
22:52 76.6 °F 62.6 °F 29.77 in NNW 3.5 mph 3.5 mph 62 % 0.00 in
22:57 76.6 °F 62.6 °F 29.78 in NW 3.5 mph 3.5 mph 62 % 0.00 in
23:02 76.5 °F 62.5 °F 29.78 in NW 2.3 mph 2.3 mph 62 % 0.00 in
23:07 76.3 °F 62.8 °F 29.78 in NNW 1.2 mph 1.2 mph 63 % 0.00 in
23:12 76.1 °F 62.6 °F 29.78 in NW 1.2 mph 1.2 mph 63 % 0.00 in
23:17 75.9 °F 62.4 °F 29.78 in WSW 1.2 mph 1.2 mph 63 % 0.00 in
23:22 75.7 °F 62.7 °F 29.78 in NNE 1.2 mph   64 % 0.00 in
23:27 75.5 °F 62.9 °F 29.78 in NW 1.2 mph 1.2 mph 65 % 0.00 in
23:32 75.2 °F 62.6 °F 29.78 in North 1.2 mph 1.2 mph 65 % 0.00 in
23:37 74.9 °F 62.8 °F 29.78 in NW 1.2 mph 1.2 mph 66 % 0.00 in
23:42 74.7 °F 63.0 °F 29.78 in Calm     67 % 0.00 in
23:47 74.5 °F 63.2 °F 29.78 in NNW 1.2 mph 1.2 mph 68 % 0.00 in
23:52 74.3 °F 63.1 °F 29.79 in WNW 3.5 mph 3.5 mph 68 % 0.00 in
23:57 74.1 °F 63.3 °F 29.79 in NW 2.0 mph 2.0 mph 69 % 0.00 in
Park Place, Exeter, Tulare County, California, USA
Compliments of Weather Underground - 2.75 mb